Location: Nevo
(61.3333°N, 22.7000°E)
Time: 21:59:55
(UTC+00:00)

Daily predictions for brighter satellites

Satellite Brightness Start Highest point End
(mag) Time Altitude Azimuth Time Altitude Azimuth Time Altitude Azimuth
Cosmos 1943 4.2 14:38:27 10° WNW 14:43:29 32° N 14:48:32 10° NE
Cosmos 1354 Rocket 4.3 14:38:42 10° SW 14:44:00 68° NW 14:49:22 10° NNE
Cosmos 968 Rocket 3.9 14:39:51 10° SW 14:44:55 58° NW 14:50:01 10° NNE
Cosmos 1818 4.5 14:40:34 10° SSW 14:45:31 36° SE 14:50:29 10° ENE
Meteor 1-28 Rocket 3.3 14:41:55 10° NNE 14:45:44 61° ESE 14:49:29 10° S
SJ-12 4.5 14:42:40 10° S 14:46:44 64° WSW 14:50:48 10° NNW
SeaSat 1 3.6 14:42:22 10° NE 14:46:44 32° NNW 14:51:06 10° W
Cosmos 1536 Rocket 3.7 14:43:01 10° S 14:47:17 56° E 14:51:33 10° NNE
CZ-4C R/B 3.1 14:45:38 10° NNE 14:49:09 86° WNW 14:52:43 10° SSW
COSMOS 2406 3.5 14:43:51 10° WSW 14:49:31 64° NW 14:55:11 10° NE
SAR-Lupe-1 4.1 14:45:59 10° NNE 14:49:35 84° ESE 14:53:11 10° SSW
Cosmos 1745 Rocket 4.1 14:44:09 10° S 14:50:12 62° E 14:56:15 10° NNE
NOAA 12 4.4 14:45:49 10° SE 14:50:46 44° ENE 14:55:44 10° NNW
Cosmos 1461 3.0 14:46:52 10° WNW 14:51:04 89° NNE 14:55:26 10° ESE
Alouette 2 Rocket 4.2 14:48:05 10° N 14:51:37 34° ENE 14:56:09 10° SE
H-2A R/B 3.7 14:49:20 10° ENE 14:51:43 14° NNE 14:54:09 10° N
USA 267 4.3 14:47:17 10° E 14:53:11 35° SE 14:59:06 10° SSW
IRS-1C Rocket 4.1 14:50:01 10° SE 14:55:10 61° ENE 15:00:23 10° NNW
ERS-2 3.9 14:52:29 10° N 14:55:40 28° NW 14:58:50 10° WSW
Cosmos 1833 Rocket 2.8 14:50:08 10° SW 14:55:48 81° NW 15:01:31 10° NE
Cosmos 1025 Rocket 3.1 14:51:44 10° S 14:55:58 63° E 15:00:13 10° NNE
Cosmos 2285 Rocket 4.1 14:50:35 10° SSW 14:56:52 74° ESE 15:03:11 10° NE
Cosmos 494 Rocket 4.5 14:52:52 10° NNW 14:57:42 38° NE 15:02:29 10° ESE
Meteor 2-10 4.0 14:52:45 10° NNW 14:58:00 78° ENE 15:03:05 10° SSE
Cosmos 1842 3.3 14:54:43 10° SSW 14:58:42 86° WNW 15:02:42 10° NNE
Landsat 5 3.7 14:54:45 10° NNE 14:59:19 88° ESE 15:03:52 10° SSW
YAOGAN 6 3.6 14:56:48 10° ESE 14:59:55 26° ENE 15:03:00 10° N
Cosmos 1437 Rocket 2.9 14:57:03 10° S 15:00:51 55° E 15:04:37 10° NNE
Ariane Rocket 4.3 14:57:54 10° E 15:01:28 20° NE 15:05:02 10° N
Feng Yun 1-1 Rocket 4.4 14:55:51 10° SE 15:01:33 67° ENE 15:07:23 10° NNW
CZ-4B R/B 1.5 14:58:46 10° NNE 15:01:51 50° ESE 15:04:51 10° S
Cosmos 2181 Rocket 4.1 14:55:27 10° NNW 15:01:51 69° ENE 15:08:17 10° SSE
Cosmos 1241 Rocket 4.5 14:56:42 10° WNW 15:02:57 74° NNE 15:09:11 10° ESE
H-2A R/B 2.6 14:58:59 10° NNE 15:03:18 61° WNW 15:07:42 10° SW
SJ-7 4.4 15:01:20 10° SSE 15:05:19 88° WSW 15:09:24 10° NNW
ALOS 3.3 15:02:30 10° S 15:07:03 51° W 15:11:39 10° NNW
NOSS 2-1 (C) 3.7 15:03:51 10° WNW 15:07:59 75° NNE 15:13:35 10° E
Cosmos 1707 2.9 15:07:06 10° S 15:10:55 54° E 15:14:46 10° NNE
CZ-4C R/B 2.9 15:04:48 10° WNW 15:11:16 85° SSW 15:19:00 10° ESE
Cosmos 2333 Rocket 2.2 15:05:41 10° NW 15:11:30 78° NE 15:17:14 10° SE
NOSS 2-1 (D) 3.8 15:07:37 10° WNW 15:11:47 76° NNE 15:17:26 10° E
Meteor 2-16 Rocket 4.5 15:05:46 10° S 15:11:50 67° E 15:17:56 10° NNE
Cosmos 2082 Rocket 2.3 15:07:27 10° SW 15:13:07 85° NW 15:18:49 10° NE
Helios 1A Rocket 3.3 15:09:37 10° S 15:13:39 69° WSW 15:17:44 10° NNW
Cosmos 1898 Rocket 4.3 15:09:27 10° S 15:14:12 34° ESE 15:18:57 10° NE
Cosmos 2322 Rocket 3.9 15:10:33 10° NW 15:15:50 39° WSW 15:21:06 10° S
Cosmos 2228 3.0 15:12:42 10° NNW 15:17:07 86° ENE 15:21:28 10° SSE
Cosmos 1340 Rocket 3.7 15:14:15 10° N 15:17:37 26° NE 15:21:00 10° ESE
SJ 16-02 2.2 15:13:53 10° SSE 15:17:49 32° ESE 15:21:37 11° NE
CZ-4B R/B 4.0 15:12:20 10° S 15:17:56 61° WSW 15:23:35 10° NNW
Cosmos 2237 Rocket 2.4 15:13:13 10° NW 15:18:44 52° NNE 15:24:14 10° ESE
Cosmos 1386 Rocket 4.5 15:13:24 10° S 15:19:29 81° E 15:25:42 10° NNE
Meteor 1-4 Rocket 3.6 15:17:53 10° SW 15:21:21 44° WNW 15:24:47 10° N
Cosmos 1953 3.1 15:18:08 10° NNW 15:22:10 57° W 15:26:09 10° S
AQUARIUS 4.1 15:20:46 10° SSE 15:25:16 80° ENE 15:29:48 10° NNW
CZ-2D R/B 4.4 15:22:22 10° ESE 15:25:24 22° NE 15:28:27 10° N
Cosmos 1937 Rocket 4.3 15:22:20 10° SSE 15:26:58 32° ESE 15:31:17 12° NE
Cosmos 1777 Rocket 4.2 15:22:31 10° SW 15:27:47 77° NW 15:33:06 10° NNE
Cosmos 1892 Rocket 4.2 15:25:12 10° SSE 15:29:18 36° E 15:33:24 10° NNE
Cosmos 1812 Rocket 4.2 15:25:14 10° N 15:29:19 34° ENE 15:33:24 10° SE
ATLAS CENTAUR R/B 1.7 15:25:27 10° WNW 15:29:55 55° N 15:33:21 15° ENE
Cosmos 1908 3.1 15:28:04 10° NNW 15:32:01 78° ENE 15:35:54 10° SSE
Cosmos 2098 Rocket 4.4 15:26:52 10° SSW 15:32:26 65° WNW 15:39:17 10° NNE
SL-08 R/B 4.4 15:28:41 10° N 15:33:04 42° WNW 15:37:25 10° SW
Cosmos 2074 Rocket 4.5 15:28:30 10° SSE 15:34:13 38° E 15:39:57 10° NNE
Cosmos 1939 Rocket 3.8 15:32:10 10° ESE 15:35:29 26° NE 15:38:50 10° N
FengYun 1-2 T 4.3 15:31:15 10° SE 15:36:48 62° ENE 15:42:24 10° NNW
SL-16 R/B 2.7 15:31:28 10° NW 15:36:53 42° NNE 15:41:55 12° E
Okean 1-7 Rocket 4.1 15:33:12 10° SSE 15:37:16 38° E 15:41:23 10° NNE
Cosmos 1300 3.1 15:35:12 10° N 15:38:50 40° ENE 15:42:28 10° SE
In-Cosmos 22 4.2 15:34:24 10° S 15:39:37 57° E 15:44:48 10° NNE
COSMOS 2487 3.3 15:37:21 10° S 15:40:26 30° ESE 15:42:17 19° ENE
Meteor 2-1 Rocket 4.5 15:36:53 10° NNW 15:42:12 44° ENE 15:47:27 10° SE
Cosmos 2058 Rocket 3.0 15:38:38 10° NNW 15:43:02 90° SSW 15:47:24 10° SSE
Cosmos 1269 Rocket 4.2 15:37:58 10° NNW 15:43:11 53° NE 15:48:22 10° ESE
Cosmos 1674 3.2 15:39:48 10° SSE 15:43:14 36° E 15:46:16 13° NNE
Nadezhda 3 Rocket 4.1 15:37:59 10° N 15:44:06 55° ENE 15:50:17 10° SE
YAOGAN 1 2.9 15:42:20 10° SE 15:46:25 42° ENE 15:50:32 10° N
Cosmos 2322 4.4 15:42:35 10° NW 15:48:08 58° WSW 15:53:40 10° SSE
SL-27 R/B 2.9 15:46:06 10° SW 15:49:42 65° NW 15:52:48 14° NNE
KORONAS-FOTON 4.2 15:48:14 10° SSE 15:51:47 39° E 15:54:41 14° NNE
CSL-04 Rocket 3.8 15:47:07 10° SE 15:52:28 53° ENE 15:57:53 10° NNW
SL-16 R/B 4.0 15:47:20 10° NNE 15:52:38 31° NW 15:57:57 10° WSW
Cosmos 1271 Rocket 3.8 15:49:57 10° SE 15:53:00 24° E 15:53:54 22° ENE
Cosmos 1048 Rocket 4.0 15:48:20 10° NW 15:53:34 88° SW 15:58:43 10° SSE
Cosmos 1455 3.5 15:53:13 10° N 15:56:15 21° NE 15:56:17 21° ENE
Envisat 3.0 15:51:11 10° SSE 15:56:17 87° WSW 16:01:25 10° NNW
CZ-4 R/B 1.5 15:52:21 10° SE 15:56:19 55° ENE 16:00:23 10° NNW
Cosmos 1726 3.5 15:53:11 10° NNW 15:56:40 42° W 16:00:07 10° SSW
Cosmos 1709 Rocket 4.0 15:50:55 10° S 15:57:03 89° ESE 16:03:15 10° NNE
NOSS 2-1 (E) 3.9 15:53:55 10° WNW 15:58:20 89° SSW 16:04:26 10° ESE
Cosmos-2242 3.8 15:55:57 10° N 15:59:50 30° ENE 16:03:33 11° ESE
Cosmos 1980 3.7 15:54:27 10° NW 16:00:12 75° NE 16:05:54 10° SE
NOSS 3-3 (A) 4.3 15:53:55 10° W 16:00:27 78° N 16:06:02 19° ENE
COBE Rocket 3.9 15:55:26 10° NNE 16:00:30 83° ESE 16:05:40 10° SSW
NOSS 3-3 (C) 4.3 15:54:03 10° W 16:00:33 78° N 16:06:08 19° ENE
ATLAS 5 CENTAUR R/B 2.9 15:57:07 10° S 16:00:46 25° SE 16:02:38 20° E
Cosmos 839 Rocket 4.0 15:55:35 10° SW 16:01:45 75° SE 16:06:30 19° ENE
COSMO-SKYMED 1 3.4 16:01:14 19° NE 16:03:24 29° E 16:07:12 10° SSE
Okean-O 2.7 15:59:19 10° SSE 16:03:45 83° WSW 16:08:15 10° NNW
Cosmos 2084 3.5 16:00:11 10° WSW 16:04:42 83° SSE 16:07:20 24° ENE
Cosmos 1602 Rocket 4.4 16:02:00 10° SE 16:05:43 27° E 16:07:06 23° ENE
COSMOS 2428 3.2 16:00:58 10° NW 16:06:40 66° WSW 16:12:21 10° SSE
Cosmos 2360 Rocket 4.1 16:02:04 10° NW 16:07:04 33° WSW 16:12:02 10° S
Iridium 4 Rocket 3.8 16:03:25 10° SSW 16:07:29 52° WNW 16:11:40 10° N
SMAP 4.1 16:04:31 10° S 16:09:03 49° W 16:13:36 10° NNW
Cosmos 1689 Rocket 2.9 16:06:28 11° N 16:09:17 50° WNW 16:12:09 10° SW
Okean O Rocket 4.1 16:08:45 10° SSW 16:12:25 25° W 16:16:06 10° NW
Resurs 01 Rocket 3.5 16:13:41 14° NNE 16:13:41 14° NNE 16:15:24 10° N
H-2A R/B 4.3 16:11:52 10° SSW 16:15:29 38° W 16:19:10 10° NNW
Cosmos 2219 Rocket 2.9 16:11:30 10° NW 16:17:05 57° WSW 16:22:38 10° SSE
PSLV R/B 3.8 16:17:10 11° NNE 16:21:08 90° W 16:25:12 10° SSW
Cosmos 990 Rocket 3.9 16:16:32 10° SSW 16:21:47 79° ESE 16:25:39 19° NE
Cosmos 1626 2.7 16:19:30 10° SSE 16:22:48 33° E 16:22:48 33° E
SeaSat 1 3.8 16:21:11 19° NE 16:23:21 25° N 16:27:22 10° NW
NOAA 11 4.1 16:18:09 10° SSE 16:23:38 72° ENE 16:29:08 10° NNW
NOSS 0 Rocket 4.2 16:17:25 10° NW 16:23:41 73° SW 16:29:52 10° SSE
IRS-1A Rocket 4.5 16:21:38 10° SE 16:27:10 51° ENE 16:32:40 10° NNW
ADEOS Rocket 4.0 16:27:10 25° E 16:27:36 25° E 16:32:59 10° SE
CZ-2C R/B 3.9 16:27:08 27° E 16:28:40 32° NE 16:33:34 10° N
Cosmos 1818 3.5 16:23:15 10° WSW 16:28:45 90° NW 16:31:45 28° ENE
Cosmos 1943 3.9 16:23:44 10° NW 16:28:55 36° NNE 16:31:05 27° ENE
Cosmos 1626 Rocket 3.7 16:25:32 10° SSE 16:29:41 46° E 16:31:49 25° NE
H-2A R/B 2.6 16:28:26 29° E 16:29:53 34° NE 16:34:28 10° N
YAOGAN 6 3.3 16:29:34 10° S 16:33:13 56° W 16:36:52 10° NNW
CZ-4B R/B 3.6 16:31:30 10° N 16:34:00 22° WNW 16:36:28 10° WSW
COSMOS 2406 4.3 16:29:36 10° W 16:34:47 34° NNW 16:37:54 20° NE
USA 267 3.6 16:33:10 24° E 16:37:07 57° SSE 16:43:33 10° WSW
Cosmos 2251 Rocket 3.7 16:33:15 10° NNW 16:38:24 50° NE 16:40:34 31° E
Ariane Rocket 3.0 16:34:38 10° SE 16:39:36 57° ENE 16:44:36 10° NNW
Cosmos 494 Rocket 4.2 16:34:47 10° NW 16:39:55 71° WSW 16:45:01 10° SSE
Cosmos 1833 Rocket 3.7 16:35:12 10° W 16:40:28 38° NNW 16:43:45 21° NE
Cosmos 1242 Rocket 2.8 16:40:41 10° S 16:43:36 45° SE 16:43:36 45° SE
SL-24 R/B - RUBIN 2 4.3 16:39:18 10° SW 16:44:50 68° SE 16:47:42 32° ENE
Cosmos 2184 Rocket 3.9 16:39:47 10° S 16:45:58 85° ESE 16:52:11 10° NNE
MOS 1 4.4 16:43:04 14° SE 16:47:49 55° ENE 16:53:24 10° NNW
Cosmos 1339 Rocket 4.4 16:42:52 10° NNW 16:48:56 61° ENE 16:54:58 10° SSE
USA 32 4.1 16:45:41 10° SSE 16:50:42 49° E 16:55:45 10° NNE
SKYMED 2 3.5 16:49:47 31° NNE 16:51:44 64° ESE 16:56:03 10° S
Cosmos 2154 Rocket 3.9 16:47:12 10° S 16:53:26 69° E 16:59:40 10° NNE
ARGOS 3.4 16:52:11 37° E 16:53:37 45° ENE 16:58:43 10° NNW
Cosmos 1340 Rocket 3.3 16:50:32 10° NNW 16:54:25 60° WSW 16:58:19 10° S
SPOT 3 Rocket 3.9 16:54:24 39° ENE 16:54:54 41° NE 16:59:43 10° NNW
Cosmos 2333 Rocket 3.8 16:50:16 10° NW 16:55:26 35° WSW 17:00:33 10° S
Cosmos 1898 Rocket 3.7 16:50:42 10° SW 16:56:01 70° NW 16:59:19 24° NNE
SJ 16-02 1.8 16:51:51 10° SW 16:56:14 59° NW 16:58:37 26° NNE
Cosmos 2150 Rocket 4.0 16:51:48 10° SSW 16:56:50 56° ESE 16:58:15 42° ENE
Cosmos 2082 Rocket 3.2 16:52:36 10° W 16:57:53 39° NNW 17:00:48 23° NNE
SJ-11-01 4.3 16:56:22 31° SE 16:58:33 60° ENE 17:03:14 10° NNW
CZ-2D R/B 3.4 16:55:36 10° S 16:59:25 75° WSW 17:03:18 10° NNW
CZ-4C R/B 3.9 16:53:13 10° WNW 16:59:36 44° SW 17:06:59 10° SSE
CSL-04 Debris 4.5 16:54:45 10° S 17:00:07 67° WSW 17:05:33 10° NNW
SJ-6B 4.5 17:03:29 22° N 17:03:29 22° N 17:05:04 10° N
Meteor 2-17 Rocket 4.4 16:56:19 10° S 17:02:21 59° E 17:08:23 10° NNE
ATLAS 5 CENTAUR R/B 2.5 16:59:21 10° W 17:02:27 75° SSW 17:05:45 30° ESE
Meteor 2-5 Rocket 3.8 16:57:05 10° SSW 17:02:37 74° WNW 17:08:16 10° NNE
Cosmos 2237 Rocket 2.6 16:57:27 10° NW 17:03:01 61° WSW 17:08:34 10° SSE
Meteor 1-24 Rocket 3.5 16:58:51 10° SSW 17:04:11 87° WNW 17:09:35 10° NNE
Cosmos 1812 Rocket 4.4 17:03:05 10° NNW 17:07:26 52° W 17:11:45 10° S
Cosmos 1937 Rocket 3.7 17:03:22 10° SW 17:08:38 72° NW 17:11:28 28° NNE
ATLAS CENTAUR R/B 1.2 17:04:48 10° WNW 17:09:14 80° NNE 17:09:32 73° E
Cosmos 1939 Rocket 3.2 17:06:18 10° S 17:10:11 62° WSW 17:14:09 10° NNW
Cosmos 1610 Rocket 4.4 17:05:53 10° S 17:12:03 88° ESE 17:18:16 10° NNE
Cosmos 1300 4.4 17:11:00 10° NNW 17:14:29 33° W 17:17:56 10° SSW
COSMOS 2487 3.3 17:12:06 10° SW 17:15:28 45° NW 17:15:52 42° NNW
SL-14 R/B 3.3 17:12:00 10° SSW 17:16:01 80° WNW 17:16:47 57° N
Meteor 2-10 Rocket 3.5 17:12:02 10° NNW 17:17:38 86° ENE 17:22:27 13° SSE
Cosmos 1674 4.1 17:15:21 10° SW 17:18:49 35° WNW 17:21:07 18° N
Cosmos 2074 Rocket 4.4 17:13:08 10° SSW 17:19:24 66° WNW 17:25:42 10° NNE
SL-16 R/B 2.1 17:15:50 10° NW 17:21:35 87° SW 17:23:51 39° SE
Cosmos 1125 Rocket 3.6 17:16:57 10° S 17:21:37 52° SE 17:21:37 52° SE
YAOGAN 1 3.8 17:18:28 10° S 17:22:35 41° W 17:26:44 10° NNW
Cosmos 2366 rocket 4.4 17:20:37 10° SSE 17:31:05 18° NNE 17:32:34 10° NNE
Cosmos 1295 Rocket 4.4 17:21:55 10° S 17:28:18 85° E 17:34:39 10° NNE
Cosmos 1271 Rocket 3.2 17:25:03 10° SSW 17:28:45 55° WNW 17:29:05 53° NW
Cosmos 2221 4.4 17:26:21 10° N 17:27:41 19° N 17:27:41 19° N
CZ-4 R/B 3.4 17:28:04 10° SSW 17:31:37 29° W 17:35:15 10° NNW
Cosmos 1833 4.2 17:26:11 10° SW 17:31:55 80° NW 17:33:48 45° NE
Cosmos 1455 3.0 17:28:29 10° NNW 17:31:15 44° NNW 17:31:15 44° NNW
Cosmos 1603 3.7 17:27:29 10° NW 17:33:10 58° NE 17:33:30 57° NE
Cosmos 962 Rocket 4.3 17:28:36 10° S 17:34:44 82° E 17:40:57 10° NNE
Cosmos-2242 3.5 17:33:24 10° NNW 17:37:43 59° W 17:40:35 20° S
Cosmos 614 Rocket 4.5 17:32:54 10° NNW 17:37:11 44° NNE 17:37:11 44° NNE
COSMO-SKYMED 1 3.0 17:38:26 38° N 17:39:53 60° WNW 17:44:10 10° SW
Cosmos 1727 Rocket 3.8 17:33:47 10° NNW 17:40:05 83° ENE 17:43:26 29° SSE
Timation 2 Rocket 3.9 17:34:35 10° SSW 17:40:41 67° SE 17:41:26 61° E
Cosmos 1140 Rocket 4.3 17:36:17 10° NNW 17:40:25 38° NNE 17:40:25 38° NNE
SL-24 R/B 4.2 17:42:30 79° N 17:42:30 79° N 17:47:17 10° NNW
Cosmos 1602 Rocket 4.0 17:38:58 10° SSW 17:43:19 60° WNW 17:44:18 47° NNW
Cosmos 2084 3.8 17:39:54 10° W 17:43:53 64° NW 17:43:53 64° NW
ATLAS 5 CENTAUR R/B 1.9 17:40:12 10° SW 17:44:11 65° SSW 17:44:11 65° SSW
Meteor 2-2 Rocket 4.4 17:41:28 10° NNW 17:47:07 60° NE 17:47:07 60° NE
Resurs 01 Rocket 3.5 17:51:14 21° N 17:51:14 21° N 17:52:47 10° N
Cosmos 407 Rocket 4.0 17:45:05 10° NNW 17:49:26 47° N 17:49:26 47° N
NOSS 3-3 (A) 4.2 17:45:01 10° WNW 17:51:52 83° NNE 17:53:29 59° E
NOSS 3-3 (C) 4.2 17:45:07 10° WNW 17:51:58 83° NNE 17:53:35 59° E
Cosmos 2341 Rocket 4.0 17:46:05 10° SSW 17:52:29 87° WNW 17:58:54 10° NNE
Cosmos 2297 Rocket 4.3 17:47:25 10° S 17:47:59 13° S 17:47:59 13° S
Cosmos 1626 3.7 17:54:39 10° SW 17:57:25 34° W 17:57:25 34° W
MetOp-A 4.4 18:00:32 56° N 18:00:32 56° N 18:04:50 10° NNW
SeaSat 1 3.7 18:00:58 31° N 18:00:58 31° N 18:04:26 10° NW
Cosmos 372 Rocket 4.2 17:56:17 10° SW 18:01:25 65° NW 18:01:52 62° NNW
Cosmos 839 Rocket 4.3 17:55:53 10° W 18:02:01 62° N 18:03:07 54° NNE
Cosmos 2298 Rocket 4.4 17:59:14 10° SW 18:04:31 63° NW 18:05:11 57° NNW
SL-8 Rocket 3.9 17:59:21 10° S 18:05:42 89° ESE 18:12:03 10° NNE
CZ-2C R/B 3.1 18:08:10 82° W 18:08:10 82° W 18:13:46 10° NNW
H-2A R/B 2.2 18:09:03 66° WSW 18:09:06 66° WSW 18:14:11 10° NNW
Cosmos 1818 3.9 18:07:18 10° W 18:12:24 59° NNW 18:12:24 59° NNW
Cosmos 1943 3.4 18:08:09 10° NW 18:12:55 60° NNW 18:12:55 60° NNW
ADEOS Rocket 2.9 18:14:04 82° SE 18:14:04 82° SE 18:20:44 10° SSW
Ariane Rocket 4.3 18:14:07 10° SSW 18:18:49 38° W 18:23:34 10° NNW
COSMOS 2406 4.3 18:15:21 10° NW 18:19:58 33° N 18:19:58 33° N
USA 267 3.3 18:20:30 62° S 18:20:44 62° S 18:27:14 10° W
Cosmos 2251 Rocket 4.1 18:15:41 10° NW 18:20:48 51° WSW 18:21:05 51° SW
Terra 4.3 18:27:49 12° N 18:27:49 12° N 18:28:20 10° N
Meteor 1-27 4.4 18:18:50 10° NNW 18:24:04 67° WNW 18:24:04 67° WNW
Cosmos 1833 Rocket 3.9 18:20:43 10° WNW 18:25:26 31° N 18:25:26 31° N
Cosmos 2218 Rocket 4.0 18:24:08 10° SSW 18:30:30 79° WNW 18:36:57 10° NNE
Cosmos 1607 4.3 18:26:55 10° SW 18:31:35 54° SW 18:31:35 54° SW
ARGOS 3.7 18:33:42 52° WSW 18:33:52 53° W 18:39:11 10° NNW
SPOT 3 Rocket 4.3 18:35:03 50° WNW 18:35:03 50° WNW 18:39:21 10° NNW
SJ 16-02 3.5 18:32:15 10° W 18:35:37 22° NNW 18:35:37 22° NNW
Cosmos 2082 Rocket 3.6 18:38:18 10° WNW 18:42:38 30° N 18:42:38 30° N
ATLAS CENTAUR R/B 3.8 18:44:01 10° WNW 18:45:44 21° W 18:45:44 21° W
SL-16 R/B 3.8 19:00:25 10° NW 19:05:08 27° WSW 19:05:46 27° WSW
ATLAS 5 CENTAUR R/B 4.3 19:24:45 10° W 19:25:44 17° W 19:25:44 17° W
